CDT,Max TemperatureF,Mean TemperatureF,Min TemperatureF,Max Dew PointF,MeanDew PointF,Min DewpointF,Max Humidity, Mean Humidity, Min Humidity, Max Sea Level PressureIn, Mean Sea Level PressureIn, Min Sea Level PressureIn, Max VisibilityMiles, Mean VisibilityMiles, Min VisibilityMiles, Max Wind SpeedMPH, Mean Wind SpeedMPH, Max Gust SpeedMPH,PrecipitationIn, CloudCover, Events, WindDirDegrees
2013-3-1,64,49,34,33,28,23,75,48,21,30.31,30.23,30.15,10,10,10,20,5,24,0.00,1,,336
2013-3-2,57,46,35,32,26,19,76,50,23,30.41,30.33,30.28,10,10,10,24,9,31,0.00,0,,332
2013-3-3,72,54,36,47,32,23,72,48,23,30.27,30.13,29.96,10,10,10,22,10,29,0.00,0,,176
2013-3-4,84,69,53,59,53,48,89,59,29,29.94,29.81,29.69,10,10,10,21,15,38,0.00,0,,183
2013-3-5,66,54,41,59,34,20,90,55,20,30.35,30.15,29.78,10,10,10,33,15,41,0.00,1,,340
2013-3-6,66,50,34,30,22,12,61,37,13,30.45,30.33,30.24,10,10,10,17,5,22,0.00,0,,13
2013-3-7,73,58,42,47,40,25,82,56,29,30.27,30.20,30.13,10,10,10,18,10,24,0.00,0,,154
2013-3-8,70,62,54,57,54,47,86,76,66,30.18,30.11,30.05,10,10,9,21,12,26,0.00,4,,135
2013-3-9,76,68,60,63,60,55,90,75,60,30.06,29.88,29.73,10,10,10,26,16,36,0.00,8,,156
2013-3-10,69,59,48,65,52,33,93,66,39,30.10,29.84,29.70,10,7,1,28,11,33,1.30,5,Rain-Thunderstorm,337
2013-3-11,60,51,41,36,28,21,70,46,22,30.15,30.08,30.02,10,10,10,22,8,29,0.00,0,,319
2013-3-12,72,56,39,35,31,27,70,47,24,30.27,30.15,30.08,10,10,10,10,3,21,0.00,0,,116
2013-3-13,73,60,47,39,36,32,71,49,27,30.45,30.36,30.27,10,10,10,14,6,18,0.00,0,,83
2013-3-14,76,61,46,51,45,39,83,58,33,30.41,30.32,30.24,10,10,10,20,8,25,0.00,0,,171
2013-3-15,80,65,49,56,49,45,89,59,28,30.26,30.14,30.02,10,10,10,21,11,31,0.00,0,,180
2013-3-16,82,70,57,61,57,54,93,65,37,30.01,29.89,29.78,10,10,10,25,15,33,0.00,2,,181
2013-3-17,83,74,65,64,62,60,93,70,47,29.83,29.77,29.65,10,10,10,20,11,24,0.00,6,,174
2013-3-18,88,75,62,65,60,48,87,64,40,29.94,29.79,29.73,10,10,9,21,11,28,0.00,4,,221
2013-3-19,82,67,52,58,50,43,83,60,37,30.01,29.94,29.86,10,10,10,25,9,33,0.00,2,,75
2013-3-20,72,63,53,55,47,34,93,60,26,30.24,30.12,30.00,10,9,2,25,8,35,0.40,4,Rain-Thunderstorm,49
2013-3-21,73,62,51,61,51,36,83,65,47,30.02,29.81,29.64,10,10,4,26,13,36,0.00,5,,156
2013-3-22,83,70,57,66,62,50,93,74,54,29.78,29.69,29.64,10,10,8,16,10,20,0.00,6,,193
2013-3-23,67,61,54,57,54,50,93,83,73,29.77,29.70,29.62,10,7,4,14,7,16,T,8,Rain,15
2013-3-24,59,51,42,57,37,26,93,62,30,30.17,29.98,29.68,10,9,2,28,17,38,0.01,3,Rain,343
2013-3-25,60,48,35,29,24,20,64,44,23,30.40,30.30,30.18,10,10,2,20,9,25,0.00,0,Rain-Snow,8
2013-3-26,62,48,34,28,23,19,64,42,20,30.51,30.40,30.33,10,10,10,13,5,18,0.00,0,,27
2013-3-27,71,55,38,46,35,25,67,47,26,30.35,30.27,30.17,10,10,10,21,9,28,0.00,1,,151
2013-3-28,74,63,52,57,53,46,78,66,53,30.24,30.20,30.14,10,10,10,21,11,25,0.00,6,,148
2013-3-29,77,67,57,61,58,55,93,74,54,30.21,30.16,30.09,10,10,4,18,10,24,0.00,5,,154
2013-3-30,82,73,63,63,61,58,93,68,43,30.11,30.03,29.91,10,10,9,21,10,25,T,4,,175
2013-3-31,82,75,67,67,64,62,87,71,55,29.97,29.92,29.84,10,10,8,20,7,25,0.02,5,Rain-Thunderstorm,203